Time,TemperatureF,DewpointF,PressureIn,WindDirection,WindDirectionDegrees,WindSpeedMPH,WindSpeedGustMPH,Humidity,HourlyPrecipIn,Conditions,Clouds,dailyrainin,SoftwareType,DateUTC
2013-06-05 00:01:00,53.9,49.2,30.14,North,355,0.0,0.0,84,0.00,,---,0.00,VWS V13.01,2013-06-05 04:01:00,
2013-06-05 00:06:00,53.7,49.3,30.14,North,355,0.0,0.0,85,0.00,,---,0.00,VWS V13.01,2013-06-05 04:06:00,
2013-06-05 00:11:00,53.5,49.1,30.14,North,355,0.0,0.0,85,0.00,,---,0.00,VWS V13.01,2013-06-05 04:11:00,
2013-06-05 00:16:00,53.3,48.9,30.13,North,355,0.0,0.0,85,0.00,,---,0.00,VWS V13.01,2013-06-05 04:16:00,
2013-06-05 00:21:00,53.2,48.8,30.13,North,355,0.0,0.0,85,0.00,,---,0.00,VWS V13.01,2013-06-05 04:21:00,
2013-06-05 00:26:00,53.0,48.9,30.13,North,355,0.0,0.0,86,0.00,,---,0.00,VWS V13.01,2013-06-05 04:26:00,
2013-06-05 00:31:00,52.9,48.8,30.13,North,355,0.0,0.0,86,0.00,,---,0.00,VWS V13.01,2013-06-05 04:31:00,
2013-06-05 00:36:00,52.8,49.0,30.13,North,355,1.0,1.0,87,0.00,,---,0.00,VWS V13.01,2013-06-05 04:36:00,
2013-06-05 00:41:00,52.7,49.2,30.13,North,360,3.0,3.0,88,0.00,,---,0.00,VWS V13.01,2013-06-05 04:41:00,
2013-06-05 00:46:00,52.7,49.0,30.13,North,360,1.0,3.0,87,0.00,,---,0.00,VWS V13.01,2013-06-05 04:46:00,
2013-06-05 00:51:00,52.6,48.8,30.13,North,360,0.0,3.0,87,0.00,,---,0.00,VWS V13.01,2013-06-05 04:51:00,
2013-06-05 00:57:00,52.5,48.8,30.13,North,360,0.0,3.0,87,0.00,,---,0.00,VWS V13.01,2013-06-05 04:57:00,
2013-06-05 01:01:00,52.4,48.7,30.13,NE,46,0.0,2.0,87,0.00,,---,0.00,VWS V13.01,2013-06-05 05:01:00,
2013-06-05 01:07:00,52.2,48.5,30.13,East,98,1.0,4.0,87,0.00,,---,0.00,VWS V13.01,2013-06-05 05:07:00,
2013-06-05 01:11:00,52.1,48.4,30.13,East,85,0.0,4.0,87,0.00,,---,0.00,VWS V13.01,2013-06-05 05:11:00,
2013-06-05 01:16:00,52.0,48.3,30.13,East,85,0.0,4.0,87,0.00,,---,0.00,VWS V13.01,2013-06-05 05:16:00,
2013-06-05 01:22:00,51.9,48.2,30.13,East,85,1.0,4.0,87,0.00,,---,0.00,VWS V13.01,2013-06-05 05:22:00,
2013-06-05 01:27:00,51.7,48.0,30.13,East,85,0.0,4.0,87,0.00,,---,0.00,VWS V13.01,2013-06-05 05:27:00,
2013-06-05 01:32:00,51.6,47.9,30.13,East,85,0.0,0.0,87,0.00,,---,0.00,VWS V13.01,2013-06-05 05:32:00,
2013-06-05 01:37:00,51.4,47.7,30.12,East,85,0.0,0.0,87,0.00,,---,0.00,VWS V13.01,2013-06-05 05:37:00,
2013-06-05 01:42:00,51.3,47.6,30.12,East,85,0.0,0.0,87,0.00,,---,0.00,VWS V13.01,2013-06-05 05:42:00,
2013-06-05 01:47:00,51.2,47.8,30.12,East,85,0.0,0.0,88,0.00,,---,0.00,VWS V13.01,2013-06-05 05:47:00,
2013-06-05 01:52:00,51.1,48.0,30.12,East,85,0.0,0.0,89,0.00,,---,0.00,VWS V13.01,2013-06-05 05:52:00,
2013-06-05 01:57:00,50.9,47.5,30.12,East,85,0.0,0.0,88,0.00,,---,0.00,VWS V13.01,2013-06-05 05:57:00,
2013-06-05 02:02:00,50.8,47.4,30.12,East,85,1.0,1.0,88,0.00,,---,0.00,VWS V13.01,2013-06-05 06:02:00,
2013-06-05 02:07:00,50.7,47.3,30.12,East,85,0.0,1.0,88,0.00,,---,0.00,VWS V13.01,2013-06-05 06:07:00,
2013-06-05 02:12:00,50.6,47.2,30.12,East,85,0.0,1.0,88,0.00,,---,0.00,VWS V13.01,2013-06-05 06:12:00,
2013-06-05 02:17:00,50.5,47.1,30.12,East,85,0.0,1.0,88,0.00,,---,0.00,VWS V13.01,2013-06-05 06:17:00,
2013-06-05 02:22:00,50.3,46.9,30.12,East,85,0.0,1.0,88,0.00,,---,0.00,VWS V13.01,2013-06-05 06:22:00,
2013-06-05 02:27:00,50.2,46.8,30.12,East,85,0.0,1.0,88,0.00,,---,0.00,VWS V13.01,2013-06-05 06:27:00,
2013-06-05 02:32:00,50.1,47.0,30.11,East,85,0.0,1.0,89,0.00,,---,0.00,VWS V13.01,2013-06-05 06:32:00,
2013-06-05 02:37:00,49.9,46.8,30.11,East,85,0.0,1.0,89,0.00,,---,0.00,VWS V13.01,2013-06-05 06:37:00,
2013-06-05 02:42:00,49.7,46.3,30.11,East,85,0.0,1.0,88,0.00,,---,0.00,VWS V13.01,2013-06-05 06:42:00,
2013-06-05 02:47:00,49.6,46.5,30.11,East,85,0.0,1.0,89,0.00,,---,0.00,VWS V13.01,2013-06-05 06:47:00,
2013-06-05 02:52:00,49.6,46.5,30.11,East,85,0.0,1.0,89,0.00,,---,0.00,VWS V13.01,2013-06-05 06:52:00,
2013-06-05 02:57:00,49.4,46.3,30.11,East,85,0.0,1.0,89,0.00,,---,0.00,VWS V13.01,2013-06-05 06:57:00,
2013-06-05 03:02:00,49.4,46.6,30.11,East,85,0.0,0.0,90,0.00,,---,0.00,VWS V13.01,2013-06-05 07:02:00,
2013-06-05 03:07:00,49.3,46.5,30.11,East,85,1.0,2.0,90,0.00,,---,0.00,VWS V13.01,2013-06-05 07:07:00,
2013-06-05 03:12:00,49.4,46.9,30.12,East,85,1.0,2.0,91,0.00,,---,0.00,VWS V13.01,2013-06-05 07:12:00,
2013-06-05 03:17:00,49.6,47.1,30.11,East,85,0.0,2.0,91,0.00,,---,0.00,VWS V13.01,2013-06-05 07:17:00,
2013-06-05 03:22:00,49.6,46.8,30.11,East,85,1.0,2.0,90,0.00,,---,0.00,VWS V13.01,2013-06-05 07:22:00,
2013-06-05 03:27:00,49.5,46.7,30.11,East,85,0.0,2.0,90,0.00,,---,0.00,VWS V13.01,2013-06-05 07:27:00,
2013-06-05 03:32:00,49.4,46.6,30.11,East,85,0.0,0.0,90,0.00,,---,0.00,VWS V13.01,2013-06-05 07:32:00,
2013-06-05 03:37:00,49.3,46.5,30.11,East,85,0.0,0.0,90,0.00,,---,0.00,VWS V13.01,2013-06-05 07:37:00,
2013-06-05 03:42:00,49.2,46.4,30.11,East,85,0.0,0.0,90,0.00,,---,0.00,VWS V13.01,2013-06-05 07:42:00,
2013-06-05 03:47:00,49.1,46.3,30.11,East,85,0.0,0.0,90,0.00,,---,0.00,VWS V13.01,2013-06-05 07:47:00,
2013-06-05 03:52:00,49.0,46.2,30.11,East,85,0.0,0.0,90,0.00,,---,0.00,VWS V13.01,2013-06-05 07:52:00,
2013-06-05 03:57:00,48.9,46.1,30.11,East,85,0.0,0.0,90,0.00,,---,0.00,VWS V13.01,2013-06-05 07:57:00,
2013-06-05 04:02:00,48.7,45.9,30.11,East,85,0.0,0.0,90,0.00,,---,0.00,VWS V13.01,2013-06-05 08:02:00,
2013-06-05 04:07:00,48.7,46.2,30.11,East,85,0.0,0.0,91,0.00,,---,0.00,VWS V13.01,2013-06-05 08:07:00,
2013-06-05 04:12:00,48.6,46.1,30.11,East,85,1.0,1.0,91,0.00,,---,0.00,VWS V13.01,2013-06-05 08:12:00,
2013-06-05 04:17:00,48.7,46.2,30.11,East,85,0.0,1.0,91,0.00,,---,0.00,VWS V13.01,2013-06-05 08:17:00,
2013-06-05 04:22:00,48.7,46.2,30.11,East,85,0.0,1.0,91,0.00,,---,0.00,VWS V13.01,2013-06-05 08:22:00,
2013-06-05 04:27:00,48.8,46.6,30.11,East,85,0.0,1.0,92,0.00,,---,0.00,VWS V13.01,2013-06-05 08:27:00,
2013-06-05 04:32:00,48.8,46.3,30.11,East,85,0.0,1.0,91,0.00,,---,0.00,VWS V13.01,2013-06-05 08:32:00,
2013-06-05 04:37:00,48.8,46.3,30.12,East,85,0.0,1.0,91,0.00,,---,0.00,VWS V13.01,2013-06-05 08:37:00,
2013-06-05 04:42:00,48.8,46.3,30.11,East,85,0.0,2.0,91,0.00,,---,0.00,VWS V13.01,2013-06-05 08:42:00,
2013-06-05 04:47:00,48.8,46.3,30.12,East,85,0.0,2.0,91,0.00,,---,0.00,VWS V13.01,2013-06-05 08:47:00,
2013-06-05 04:52:00,48.7,46.2,30.12,East,85,0.0,2.0,91,0.00,,---,0.00,VWS V13.01,2013-06-05 08:52:00,
2013-06-05 04:57:00,48.8,46.3,30.12,NE,45,2.0,2.0,91,0.00,,---,0.00,VWS V13.01,2013-06-05 08:57:00,
2013-06-05 05:02:00,48.8,46.3,30.12,NE,42,1.0,3.0,91,0.00,,---,0.00,VWS V13.01,2013-06-05 09:02:00,
2013-06-05 05:07:00,48.8,46.3,30.12,NE,42,0.0,3.0,91,0.00,,---,0.00,VWS V13.01,2013-06-05 09:07:00,
2013-06-05 05:12:00,48.7,45.9,30.12,NE,42,0.0,3.0,90,0.00,,---,0.00,VWS V13.01,2013-06-05 09:12:00,
2013-06-05 05:17:00,48.5,45.7,30.12,NE,42,0.0,3.0,90,0.00,,---,0.00,VWS V13.01,2013-06-05 09:17:00,
2013-06-05 05:22:00,48.4,45.9,30.12,NE,42,0.0,3.0,91,0.00,,---,0.00,VWS V13.01,2013-06-05 09:22:00,
2013-06-05 05:27:00,48.3,45.8,30.12,NE,42,1.0,3.0,91,0.00,,---,0.00,VWS V13.01,2013-06-05 09:27:00,
2013-06-05 05:32:00,48.3,45.8,30.12,NE,42,0.0,0.0,91,0.00,,---,0.00,VWS V13.01,2013-06-05 09:32:00,
2013-06-05 05:37:00,48.3,45.8,30.12,NE,42,0.0,1.0,91,0.00,,---,0.00,VWS V13.01,2013-06-05 09:37:00,
2013-06-05 05:42:00,48.2,45.7,30.13,NE,42,0.0,1.0,91,0.00,,---,0.00,VWS V13.01,2013-06-05 09:42:00,
2013-06-05 05:47:00,48.1,45.6,30.13,NE,42,0.0,1.0,91,0.00,,---,0.00,VWS V13.01,2013-06-05 09:47:00,
2013-06-05 05:52:00,48.0,45.5,30.13,NE,42,0.0,1.0,91,0.00,,---,0.00,VWS V13.01,2013-06-05 09:52:00,
2013-06-05 05:57:00,47.9,45.4,30.13,NE,42,0.0,1.0,91,0.00,,---,0.00,VWS V13.01,2013-06-05 09:57:00,
2013-06-05 06:02:00,47.8,45.3,30.13,NE,42,0.0,1.0,91,0.00,,---,0.00,VWS V13.01,2013-06-05 10:02:00,
2013-06-05 06:07:00,47.8,45.6,30.13,NE,42,1.0,1.0,92,0.00,,---,0.00,VWS V13.01,2013-06-05 10:07:00,
2013-06-05 06:12:00,47.9,45.7,30.13,NE,42,2.0,2.0,92,0.00,,---,0.00,VWS V13.01,2013-06-05 10:12:00,
2013-06-05 06:17:00,48.0,45.8,30.12,NE,42,0.0,2.0,92,0.00,,---,0.00,VWS V13.01,2013-06-05 10:17:00,
2013-06-05 06:22:00,48.2,46.0,30.13,NE,42,0.0,2.0,92,0.00,,---,0.00,VWS V13.01,2013-06-05 10:22:00,
2013-06-05 06:27:00,48.3,46.1,30.13,NE,43,0.0,2.0,92,0.00,,---,0.00,VWS V13.01,2013-06-05 10:27:00,
2013-06-05 06:32:00,48.5,46.3,30.13,NE,42,2.0,3.0,92,0.00,,---,0.00,VWS V13.01,2013-06-05 10:32:00,
2013-06-05 06:37:00,48.8,46.6,30.12,NNE,30,1.0,3.0,92,0.00,,---,0.00,VWS V13.01,2013-06-05 10:37:00,
2013-06-05 06:42:00,49.2,47.0,30.12,NNE,30,0.0,3.0,92,0.00,,---,0.00,VWS V13.01,2013-06-05 10:42:00,
2013-06-05 06:47:00,49.4,46.9,30.13,NNE,30,1.0,3.0,91,0.00,,---,0.00,VWS V13.01,2013-06-05 10:47:00,
2013-06-05 06:52:00,49.6,46.8,30.13,NE,40,2.0,4.0,90,0.00,,---,0.00,VWS V13.01,2013-06-05 10:52:00,
2013-06-05 06:57:00,49.8,47.0,30.13,ENE,61,1.0,4.0,90,0.00,,---,0.00,VWS V13.01,2013-06-05 10:57:00,
2013-06-05 07:02:00,50.1,47.0,30.13,NE,46,4.0,5.0,89,0.00,,---,0.00,VWS V13.01,2013-06-05 11:02:00,
2013-06-05 07:07:00,50.6,47.5,30.13,North,5,0.0,5.0,89,0.00,,---,0.00,VWS V13.01,2013-06-05 11:07:00,
2013-06-05 07:12:00,51.0,47.6,30.13,NE,37,0.0,5.0,88,0.00,,---,0.00,VWS V13.01,2013-06-05 11:12:00,
2013-06-05 07:17:00,51.7,48.0,30.13,NNE,29,0.0,5.0,87,0.00,,---,0.00,VWS V13.01,2013-06-05 11:17:00,
2013-06-05 07:22:00,52.6,48.2,30.13,ENE,68,1.0,5.0,85,0.00,,---,0.00,VWS V13.01,2013-06-05 11:22:00,
2013-06-05 07:27:00,53.3,48.6,30.13,NE,55,1.0,5.0,84,0.00,,---,0.00,VWS V13.01,2013-06-05 11:27:00,
2013-06-05 07:32:00,54.0,48.6,30.13,NE,36,0.0,3.0,82,0.00,,---,0.00,VWS V13.01,2013-06-05 11:32:00,
2013-06-05 07:37:00,54.8,48.8,30.13,NNE,28,2.0,4.0,80,0.00,,---,0.00,VWS V13.01,2013-06-05 11:37:00,
2013-06-05 07:42:00,55.2,48.8,30.13,NNE,20,1.0,4.0,79,0.00,,---,0.00,VWS V13.01,2013-06-05 11:42:00,
2013-06-05 07:47:00,55.7,49.0,30.13,North,5,3.0,4.0,78,0.00,,---,0.00,VWS V13.01,2013-06-05 11:47:00,
2013-06-05 07:52:00,56.4,49.6,30.12,NNE,12,1.0,4.0,78,0.00,,---,0.00,VWS V13.01,2013-06-05 11:52:00,
2013-06-05 07:57:00,57.3,50.2,30.12,NNE,19,2.0,4.0,77,0.00,,---,0.00,VWS V13.01,2013-06-05 11:57:00,
2013-06-05 08:02:00,58.0,50.5,30.12,NNE,13,2.0,3.0,76,0.00,,---,0.00,VWS V13.01,2013-06-05 12:02:00,
2013-06-05 08:07:00,58.9,50.6,30.12,North,5,0.0,4.0,74,0.00,,---,0.00,VWS V13.01,2013-06-05 12:07:00,
2013-06-05 08:12:00,59.6,52.0,30.12,NNW,347,0.0,4.0,76,0.00,,---,0.00,VWS V13.01,2013-06-05 12:12:00,
2013-06-05 08:17:00,60.2,51.9,30.12,NNW,327,0.0,4.0,74,0.00,,---,0.00,VWS V13.01,2013-06-05 12:17:00,
2013-06-05 08:22:00,60.9,51.8,30.12,NNW,327,0.0,4.0,72,0.00,,---,0.00,VWS V13.01,2013-06-05 12:22:00,
2013-06-05 08:27:00,61.9,50.0,30.12,South,173,3.0,6.0,65,0.00,,---,0.00,VWS V13.01,2013-06-05 12:27:00,
2013-06-05 08:32:00,62.8,50.5,30.12,SSW,199,2.0,4.0,64,0.00,,---,0.00,VWS V13.01,2013-06-05 12:32:00,
2013-06-05 08:37:00,63.5,50.7,30.12,NW,318,1.0,5.0,63,0.00,,---,0.00,VWS V13.01,2013-06-05 12:37:00,
2013-06-05 08:42:00,64.3,51.0,30.11,SE,137,0.0,5.0,62,0.00,,---,0.00,VWS V13.01,2013-06-05 12:42:00,
2013-06-05 08:47:00,64.9,52.0,30.11,SSE,165,1.0,5.0,63,0.00,,---,0.00,VWS V13.01,2013-06-05 12:47:00,
2013-06-05 08:52:00,65.7,51.0,30.11,NE,54,2.0,5.0,59,0.00,,---,0.00,VWS V13.01,2013-06-05 12:52:00,
2013-06-05 08:57:00,66.1,50.4,30.11,East,86,5.0,7.0,57,0.00,,---,0.00,VWS V13.01,2013-06-05 12:57:00,
2013-06-05 09:02:00,66.5,51.3,30.10,ESE,119,1.0,4.0,58,0.00,,---,0.00,VWS V13.01,2013-06-05 13:02:00,
2013-06-05 09:07:00,66.8,51.1,30.10,ESE,104,1.0,9.0,57,0.00,,---,0.00,VWS V13.01,2013-06-05 13:07:00,
2013-06-05 09:12:00,67.0,51.3,30.10,WSW,241,2.0,9.0,57,0.00,,---,0.00,VWS V13.01,2013-06-05 13:12:00,
2013-06-05 09:17:00,67.3,51.1,30.10,SE,133,3.0,9.0,56,0.00,,---,0.00,VWS V13.01,2013-06-05 13:17:00,
2013-06-05 09:22:00,67.6,51.4,30.10,SSW,193,3.0,9.0,56,0.00,,---,0.00,VWS V13.01,2013-06-05 13:22:00,
2013-06-05 09:27:00,67.7,51.0,30.09,ENE,76,1.0,9.0,55,0.00,,---,0.00,VWS V13.01,2013-06-05 13:27:00,
2013-06-05 09:32:00,67.9,51.6,30.09,SE,135,9.0,14.0,56,0.00,,---,0.00,VWS V13.01,2013-06-05 13:32:00,
2013-06-05 09:37:00,68.0,51.2,30.09,South,180,4.0,14.0,55,0.00,,---,0.00,VWS V13.01,2013-06-05 13:37:00,
2013-06-05 09:42:00,67.8,51.5,30.09,SSW,204,3.0,14.0,56,0.00,,---,0.00,VWS V13.01,2013-06-05 13:42:00,
2013-06-05 09:47:00,67.9,52.6,30.09,South,169,3.0,14.0,58,0.00,,---,0.00,VWS V13.01,2013-06-05 13:47:00,
2013-06-05 09:52:00,68.1,52.3,30.09,SE,144,3.0,14.0,57,0.00,,---,0.00,VWS V13.01,2013-06-05 13:52:00,
2013-06-05 09:57:00,68.4,52.1,30.08,South,184,0.0,14.0,56,0.00,,---,0.00,VWS V13.01,2013-06-05 13:57:00,
2013-06-05 10:02:00,68.7,52.4,30.08,SSE,150,6.0,7.0,56,0.00,,---,0.00,VWS V13.01,2013-06-05 14:02:00,
2013-06-05 10:07:00,69.2,52.8,30.08,WSW,244,5.0,7.0,56,0.00,,---,0.00,VWS V13.01,2013-06-05 14:07:00,
2013-06-05 10:12:00,69.6,52.7,30.08,SSW,197,3.0,9.0,55,0.00,,---,0.00,VWS V13.01,2013-06-05 14:12:00,
2013-06-05 10:18:00,70.1,52.7,30.08,SE,124,6.0,9.0,54,0.00,,---,0.00,VWS V13.01,2013-06-05 14:18:00,
2013-06-05 10:23:00,70.4,53.5,30.08,SSE,157,0.0,9.0,55,0.00,,---,0.00,VWS V13.01,2013-06-05 14:23:00,
2013-06-05 10:28:00,70.9,54.4,30.08,SSE,161,3.0,9.0,56,0.00,,---,0.00,VWS V13.01,2013-06-05 14:28:00,
2013-06-05 10:33:00,71.5,54.5,30.07,SSE,162,1.0,3.0,55,0.00,,---,0.00,VWS V13.01,2013-06-05 14:33:00,
2013-06-05 10:38:00,72.0,55.0,30.07,SE,143,2.0,9.0,55,0.00,,---,0.00,VWS V13.01,2013-06-05 14:38:00,
2013-06-05 10:43:00,72.4,54.3,30.07,South,169,3.0,13.0,53,0.00,,---,0.00,VWS V13.01,2013-06-05 14:43:00,
2013-06-05 10:48:00,72.6,55.0,30.07,SSW,211,5.0,13.0,54,0.00,,---,0.00,VWS V13.01,2013-06-05 14:48:00,
2013-06-05 10:53:00,73.0,55.9,30.07,ENE,62,4.0,13.0,55,0.00,,---,0.00,VWS V13.01,2013-06-05 14:53:00,
2013-06-05 10:58:00,72.9,55.3,30.07,ENE,67,1.0,13.0,54,0.00,,---,0.00,VWS V13.01,2013-06-05 14:58:00,
2013-06-05 11:03:00,73.1,56.0,30.07,NE,53,5.0,7.0,55,0.00,,---,0.00,VWS V13.01,2013-06-05 15:03:00,
2013-06-05 11:08:00,73.5,56.4,30.06,SSE,148,3.0,9.0,55,0.00,,---,0.00,VWS V13.01,2013-06-05 15:08:00,
2013-06-05 11:13:00,73.7,55.5,30.06,East,90,7.0,10.0,53,0.00,,---,0.00,VWS V13.01,2013-06-05 15:13:00,
2013-06-05 11:18:00,73.8,55.6,30.07,East,92,6.0,10.0,53,0.00,,---,0.00,VWS V13.01,2013-06-05 15:18:00,
2013-06-05 11:23:00,74.0,55.8,30.06,ESE,105,4.0,10.0,53,0.00,,---,0.00,VWS V13.01,2013-06-05 15:23:00,
2013-06-05 11:28:00,74.2,56.5,30.06,SSE,152,1.0,10.0,54,0.00,,---,0.00,VWS V13.01,2013-06-05 15:28:00,
2013-06-05 11:33:00,74.5,57.3,30.06,SSE,158,1.0,7.0,55,0.00,,---,0.00,VWS V13.01,2013-06-05 15:33:00,
2013-06-05 11:38:00,75.1,57.3,30.06,SSE,157,3.0,7.0,54,0.00,,---,0.00,VWS V13.01,2013-06-05 15:38:00,
2013-06-05 11:43:00,75.6,57.3,30.07,SSW,195,6.0,10.0,53,0.00,,---,0.00,VWS V13.01,2013-06-05 15:43:00,
2013-06-05 11:48:00,76.0,58.2,30.07,SSE,167,8.0,10.0,54,0.00,,---,0.00,VWS V13.01,2013-06-05 15:48:00,
2013-06-05 11:53:00,76.5,56.5,30.06,SSE,166,0.0,10.0,50,0.00,,---,0.00,VWS V13.01,2013-06-05 15:53:00,
2013-06-05 11:58:00,76.8,57.3,30.06,SSE,161,1.0,10.0,51,0.00,,---,0.00,VWS V13.01,2013-06-05 15:58:00,
2013-06-05 12:03:00,77.1,59.2,30.06,SW,229,5.0,8.0,54,0.00,,---,0.00,VWS V13.01,2013-06-05 16:03:00,
2013-06-05 12:08:00,76.9,58.5,30.06,SW,227,5.0,8.0,53,0.00,,---,0.00,VWS V13.01,2013-06-05 16:08:00,
2013-06-05 12:13:00,77.1,60.2,30.06,SSE,158,4.0,8.0,56,0.00,,---,0.00,VWS V13.01,2013-06-05 16:13:00,
2013-06-05 12:18:00,77.5,61.1,30.05,SSW,205,4.0,8.0,57,0.00,,---,0.00,VWS V13.01,2013-06-05 16:18:00,
2013-06-05 12:23:00,77.7,60.8,30.05,East,88,0.0,8.0,56,0.00,,---,0.00,VWS V13.01,2013-06-05 16:23:00,
2013-06-05 12:28:00,78.2,60.7,30.04,SE,146,4.0,8.0,55,0.00,,---,0.00,VWS V13.01,2013-06-05 16:28:00,
2013-06-05 12:33:00,78.5,60.0,30.03,SSE,160,3.0,11.0,53,0.00,,---,0.00,VWS V13.01,2013-06-05 16:33:00,
2013-06-05 12:38:00,78.5,59.4,30.02,West,278,5.0,11.0,52,0.00,,---,0.00,VWS V13.01,2013-06-05 16:38:00,
2013-06-05 12:43:00,78.4,59.9,30.03,SW,214,4.0,11.0,53,0.00,,---,0.00,VWS V13.01,2013-06-05 16:43:00,
2013-06-05 12:48:00,78.3,59.8,30.02,SSW,205,3.0,11.0,53,0.00,,---,0.00,VWS V13.01,2013-06-05 16:48:00,
2013-06-05 12:53:00,78.1,60.1,30.01,SSE,167,3.0,11.0,54,0.00,,---,0.00,VWS V13.01,2013-06-05 16:53:00,
2013-06-05 12:58:00,78.2,61.2,30.01,WSW,253,4.0,11.0,56,0.00,,---,0.00,VWS V13.01,2013-06-05 16:58:00,
2013-06-05 13:03:00,78.4,60.9,30.01,SSW,207,5.0,7.0,55,0.00,,---,0.00,VWS V13.01,2013-06-05 17:03:00,
2013-06-05 13:08:00,78.7,60.7,30.01,SW,224,3.0,13.0,54,0.00,,---,0.00,VWS V13.01,2013-06-05 17:08:00,
2013-06-05 13:13:00,78.9,61.9,30.01,SSW,206,4.0,13.0,56,0.00,,---,0.00,VWS V13.01,2013-06-05 17:13:00,
2013-06-05 13:18:00,79.1,60.0,30.01,SSE,165,2.0,13.0,52,0.00,,---,0.00,VWS V13.01,2013-06-05 17:18:00,
2013-06-05 13:23:00,79.0,60.4,30.00,East,93,0.0,13.0,53,0.00,,---,0.00,VWS V13.01,2013-06-05 17:23:00,
2013-06-05 13:28:00,79.1,62.1,30.00,South,187,1.0,13.0,56,0.00,,---,0.00,VWS V13.01,2013-06-05 17:28:00,
2013-06-05 13:33:00,79.2,61.1,30.00,East,92,2.0,5.0,54,0.00,,---,0.00,VWS V13.01,2013-06-05 17:33:00,
2013-06-05 13:38:00,79.0,61.0,30.00,ENE,77,2.0,5.0,54,0.00,,---,0.00,VWS V13.01,2013-06-05 17:38:00,
2013-06-05 13:43:00,79.1,62.1,30.00,SE,143,8.0,8.0,56,0.00,,---,0.00,VWS V13.01,2013-06-05 17:43:00,
2013-06-05 13:48:00,79.2,61.1,30.00,ENE,77,3.0,9.0,54,0.00,,---,0.00,VWS V13.01,2013-06-05 17:48:00,
2013-06-05 13:53:00,79.5,61.4,29.99,ENE,72,2.0,9.0,54,0.00,,---,0.00,VWS V13.01,2013-06-05 17:53:00,
2013-06-05 13:58:00,80.1,61.4,30.00,ENE,65,2.0,9.0,53,0.00,,---,0.00,VWS V13.01,2013-06-05 17:58:00,
2013-06-05 14:03:00,80.3,61.6,29.99,East,87,2.0,5.0,53,0.00,,---,0.00,VWS V13.01,2013-06-05 18:03:00,
2013-06-05 14:08:00,80.2,61.0,29.99,ESE,121,0.0,8.0,52,0.00,,---,0.00,VWS V13.01,2013-06-05 18:08:00,
2013-06-05 14:13:00,80.0,60.8,29.99,SW,234,6.0,8.0,52,0.00,,---,0.00,VWS V13.01,2013-06-05 18:13:00,
2013-06-05 14:18:00,79.9,61.8,29.99,WSW,253,3.0,8.0,54,0.00,,---,0.00,VWS V13.01,2013-06-05 18:18:00,
2013-06-05 14:23:00,80.1,63.0,29.99,WSW,244,1.0,8.0,56,0.00,,---,0.00,VWS V13.01,2013-06-05 18:23:00,
2013-06-05 14:28:00,80.6,61.4,30.00,SSE,167,2.0,8.0,52,0.00,,---,0.00,VWS V13.01,2013-06-05 18:28:00,
2013-06-05 14:33:00,80.5,60.2,30.00,SE,126,3.0,6.0,50,0.00,,---,0.00,VWS V13.01,2013-06-05 18:33:00,
2013-06-05 14:38:00,79.9,60.2,30.00,ESE,117,0.0,6.0,51,0.00,,---,0.00,VWS V13.01,2013-06-05 18:38:00,
2013-06-05 14:43:00,79.6,60.4,29.99,SSE,164,1.0,6.0,52,0.00,,---,0.00,VWS V13.01,2013-06-05 18:43:00,
2013-06-05 14:48:00,79.8,61.7,29.99,ENE,73,2.0,7.0,54,0.00,,---,0.00,VWS V13.01,2013-06-05 18:48:00,
2013-06-05 14:53:00,80.0,60.3,29.99,East,91,0.0,7.0,51,0.00,,---,0.00,VWS V13.01,2013-06-05 18:53:00,
2013-06-05 14:58:00,79.9,60.7,29.98,ENE,76,2.0,7.0,52,0.00,,---,0.00,VWS V13.01,2013-06-05 18:58:00,
2013-06-05 15:03:00,80.1,60.9,29.99,SE,141,0.0,9.0,52,0.00,,---,0.00,VWS V13.01,2013-06-05 19:03:00,
2013-06-05 15:08:00,80.6,61.4,29.99,East,99,1.0,9.0,52,0.00,,---,0.00,VWS V13.01,2013-06-05 19:08:00,
2013-06-05 15:13:00,81.1,61.3,29.99,SW,231,1.0,9.0,51,0.00,,---,0.00,VWS V13.01,2013-06-05 19:13:00,
2013-06-05 15:18:00,81.5,61.7,29.99,East,80,5.0,9.0,51,0.00,,---,0.00,VWS V13.01,2013-06-05 19:18:00,
2013-06-05 17:36:00,79.0,59.3,29.96,East,97,6.0,12.0,51,0.00,,---,0.00,VWS V13.01,2013-06-05 21:36:00,
2013-06-05 17:41:00,78.4,59.3,29.95,SSW,192,4.0,12.0,52,0.00,,---,0.00,VWS V13.01,2013-06-05 21:41:00,
2013-06-05 17:46:00,77.8,59.8,29.95,East,94,6.0,14.0,54,0.00,,---,0.00,VWS V13.01,2013-06-05 21:46:00,
2013-06-05 17:51:00,77.5,59.6,29.95,SE,130,6.0,14.0,54,0.00,,---,0.00,VWS V13.01,2013-06-05 21:51:00,
2013-06-05 17:56:00,77.3,59.4,29.95,ESE,104,7.0,14.0,54,0.00,,---,0.00,VWS V13.01,2013-06-05 21:56:00,
2013-06-05 18:01:00,77.2,60.3,29.94,ENE,71,3.0,6.0,56,0.00,,---,0.00,VWS V13.01,2013-06-05 22:01:00,
2013-06-05 18:06:00,77.0,59.1,29.95,East,88,9.0,14.0,54,0.00,,---,0.00,VWS V13.01,2013-06-05 22:06:00,
2013-06-05 18:11:00,76.8,59.4,29.94,SE,138,4.0,14.0,55,0.00,,---,0.00,VWS V13.01,2013-06-05 22:11:00,
2013-06-05 18:16:00,76.7,59.3,29.94,SE,136,1.0,14.0,55,0.00,,---,0.00,VWS V13.01,2013-06-05 22:16:00,
2013-06-05 18:21:00,76.4,59.1,29.94,SSE,166,4.0,14.0,55,0.00,,---,0.00,VWS V13.01,2013-06-05 22:21:00,
2013-06-05 18:26:00,76.2,58.9,29.94,SSE,149,5.0,14.0,55,0.00,,---,0.00,VWS V13.01,2013-06-05 22:26:00,
2013-06-05 18:31:00,75.9,59.1,29.94,SSE,153,5.0,5.0,56,0.00,,---,0.00,VWS V13.01,2013-06-05 22:31:00,
2013-06-05 18:36:00,75.7,58.9,29.94,ENE,67,4.0,11.0,56,0.00,,---,0.00,VWS V13.01,2013-06-05 22:36:00,
2013-06-05 18:41:00,75.6,59.3,29.94,SSE,148,8.0,11.0,57,0.00,,---,0.00,VWS V13.01,2013-06-05 22:41:00,
2013-06-05 18:46:00,75.6,59.3,29.95,SE,141,7.0,11.0,57,0.00,,---,0.00,VWS V13.01,2013-06-05 22:46:00,
2013-06-05 18:51:00,75.8,59.0,29.94,SSE,152,6.0,12.0,56,0.00,,---,0.00,VWS V13.01,2013-06-05 22:51:00,
2013-06-05 18:56:00,76.3,59.0,29.94,ESE,123,1.0,12.0,55,0.00,,---,0.00,VWS V13.01,2013-06-05 22:56:00,
2013-06-05 19:01:00,76.7,59.3,29.94,SE,140,4.0,7.0,55,0.00,,---,0.00,VWS V13.01,2013-06-05 23:01:00,
2013-06-05 19:06:00,76.8,58.9,29.93,East,100,3.0,9.0,54,0.00,,---,0.00,VWS V13.01,2013-06-05 23:06:00,
2013-06-05 19:11:00,76.4,58.5,29.93,SE,129,0.0,13.0,54,0.00,,---,0.00,VWS V13.01,2013-06-05 23:11:00,
2013-06-05 19:16:00,76.0,58.7,29.93,East,80,2.0,13.0,55,0.00,,---,0.00,VWS V13.01,2013-06-05 23:16:00,
2013-06-05 19:21:00,75.6,58.3,29.93,ESE,109,0.0,13.0,55,0.00,,---,0.00,VWS V13.01,2013-06-05 23:21:00,
2013-06-05 19:26:00,75.3,58.5,29.94,SSE,156,0.0,13.0,56,0.00,,---,0.00,VWS V13.01,2013-06-05 23:26:00,
2013-06-05 19:31:00,75.1,58.3,29.94,SE,143,1.0,6.0,56,0.00,,---,0.00,VWS V13.01,2013-06-05 23:31:00,
2013-06-05 19:36:00,75.0,58.3,29.93,SE,146,3.0,10.0,56,0.00,,---,0.00,VWS V13.01,2013-06-05 23:36:00,
2013-06-05 19:41:00,74.9,58.2,29.93,East,81,1.0,17.0,56,0.00,,---,0.00,VWS V13.01,2013-06-05 23:41:00,
2013-06-05 19:46:00,74.9,58.7,29.93,SW,215,0.0,17.0,57,0.00,,---,0.00,VWS V13.01,2013-06-05 23:46:00,
2013-06-05 19:51:00,74.8,58.6,29.93,SSW,213,1.0,17.0,57,0.00,,---,0.00,VWS V13.01,2013-06-05 23:51:00,
2013-06-05 19:56:00,74.6,57.9,29.93,SE,140,2.0,17.0,56,0.00,,---,0.00,VWS V13.01,2013-06-05 23:56:00,
2013-06-05 20:01:00,74.5,57.8,29.93,ESE,111,10.0,11.0,56,0.00,,---,0.00,VWS V13.01,2013-06-06 00:01:00,
2013-06-05 20:06:00,74.1,57.9,29.93,SSE,167,2.0,13.0,57,0.00,,---,0.00,VWS V13.01,2013-06-06 00:06:00,
2013-06-05 20:11:00,73.8,57.6,29.93,ESE,121,1.0,13.0,57,0.00,,---,0.00,VWS V13.01,2013-06-06 00:11:00,
2013-06-05 20:16:00,73.5,57.8,29.93,SSE,165,6.0,14.0,58,0.00,,---,0.00,VWS V13.01,2013-06-06 00:16:00,
2013-06-05 20:21:00,73.3,57.2,29.93,South,173,2.0,14.0,57,0.00,,---,0.00,VWS V13.01,2013-06-06 00:21:00,
2013-06-05 20:26:00,73.1,57.5,29.93,SSE,162,2.0,14.0,58,0.00,,---,0.00,VWS V13.01,2013-06-06 00:26:00,
2013-06-05 20:31:00,72.9,57.3,29.93,SE,131,4.0,16.0,58,0.00,,---,0.00,VWS V13.01,2013-06-06 00:31:00,
2013-06-05 20:36:00,72.7,57.1,29.92,ESE,121,1.0,16.0,58,0.00,,---,0.00,VWS V13.01,2013-06-06 00:36:00,
2013-06-05 20:41:00,72.5,56.9,29.92,SSE,163,12.0,22.0,58,0.00,,---,0.00,VWS V13.01,2013-06-06 00:41:00,
2013-06-05 20:46:00,72.3,57.2,29.92,ESE,103,4.0,25.0,59,0.00,,---,0.00,VWS V13.01,2013-06-06 00:46:00,
2013-06-05 20:51:00,72.1,57.0,29.92,SE,130,3.0,25.0,59,0.00,,---,0.00,VWS V13.01,2013-06-06 00:51:00,
2013-06-05 20:57:00,71.9,56.8,29.92,East,89,6.0,25.0,59,0.00,,---,0.00,VWS V13.01,2013-06-06 00:57:00,
2013-06-05 21:02:00,71.7,57.1,29.92,SE,136,1.0,9.0,60,0.00,,---,0.00,VWS V13.01,2013-06-06 01:02:00,
2013-06-05 21:07:00,71.5,56.9,29.92,ENE,69,1.0,11.0,60,0.00,,---,0.00,VWS V13.01,2013-06-06 01:07:00,
2013-06-05 21:12:00,71.4,57.3,29.92,SSE,161,13.0,13.0,61,0.00,,---,0.00,VWS V13.01,2013-06-06 01:12:00,
2013-06-05 21:17:00,71.2,57.1,29.92,SSW,202,6.0,13.0,61,0.00,,---,0.00,VWS V13.01,2013-06-06 01:17:00,
2013-06-05 21:22:00,71.1,57.0,29.92,SSE,166,2.0,13.0,61,0.00,,---,0.00,VWS V13.01,2013-06-06 01:22:00,
2013-06-05 21:27:00,70.9,56.8,29.92,SSE,148,3.0,13.0,61,0.00,,---,0.00,VWS V13.01,2013-06-06 01:27:00,
2013-06-05 21:32:00,70.9,57.2,29.93,WSW,242,6.0,12.0,62,0.00,,---,0.00,VWS V13.01,2013-06-06 01:32:00,
2013-06-05 21:37:00,70.9,57.2,29.92,East,93,2.0,17.0,62,0.00,,---,0.00,VWS V13.01,2013-06-06 01:37:00,
2013-06-05 21:42:00,70.9,57.2,29.93,South,183,8.0,17.0,62,0.00,,---,0.00,VWS V13.01,2013-06-06 01:42:00,
2013-06-05 21:47:00,70.8,57.2,29.93,ENE,68,4.0,17.0,62,0.00,,---,0.00,VWS V13.01,2013-06-06 01:47:00,
2013-06-05 21:52:00,70.7,57.5,29.93,SE,142,1.0,17.0,63,0.00,,---,0.00,VWS V13.01,2013-06-06 01:52:00,
2013-06-05 21:57:00,70.6,57.4,29.93,ESE,104,4.0,17.0,63,0.00,,---,0.00,VWS V13.01,2013-06-06 01:57:00,
2013-06-05 22:02:00,70.6,57.4,29.93,SSE,164,5.0,13.0,63,0.00,,---,0.00,VWS V13.01,2013-06-06 02:02:00,
2013-06-05 22:07:00,70.4,57.7,29.93,ENE,59,2.0,13.0,64,0.00,,---,0.00,VWS V13.01,2013-06-06 02:07:00,
2013-06-05 22:12:00,70.3,57.6,29.93,ESE,111,13.0,13.0,64,0.00,,---,0.00,VWS V13.01,2013-06-06 02:12:00,
2013-06-05 22:17:00,70.3,57.6,29.93,South,173,5.0,13.0,64,0.00,,---,0.00,VWS V13.01,2013-06-06 02:17:00,
2013-06-05 22:22:00,70.2,57.9,29.92,SSE,163,0.0,20.0,65,0.00,,---,0.00,VWS V13.01,2013-06-06 02:22:00,
2013-06-05 22:27:00,70.1,57.8,29.92,SSE,160,1.0,20.0,65,0.00,,---,0.00,VWS V13.01,2013-06-06 02:27:00,
2013-06-05 22:32:00,70.1,57.8,29.92,South,188,3.0,11.0,65,0.00,,---,0.00,VWS V13.01,2013-06-06 02:32:00,
2013-06-05 22:37:00,70.0,58.1,29.92,South,175,7.0,12.0,66,0.00,,---,0.00,VWS V13.01,2013-06-06 02:37:00,
2013-06-05 22:42:00,70.0,58.1,29.92,SE,146,2.0,12.0,66,0.00,,---,0.00,VWS V13.01,2013-06-06 02:42:00,
2013-06-05 22:47:00,69.9,58.0,29.92,ESE,121,1.0,12.0,66,0.00,,---,0.00,VWS V13.01,2013-06-06 02:47:00,
2013-06-05 22:52:00,69.8,58.4,29.92,SE,142,2.0,13.0,67,0.00,,---,0.00,VWS V13.01,2013-06-06 02:52:00,
2013-06-05 22:57:00,69.8,58.4,29.92,SE,127,1.0,13.0,67,0.00,,---,0.00,VWS V13.01,2013-06-06 02:57:00,
2013-06-05 23:02:00,69.7,58.3,29.92,SE,140,4.0,11.0,67,0.00,,---,0.00,VWS V13.01,2013-06-06 03:02:00,
2013-06-05 23:07:00,69.7,58.3,29.92,SE,140,7.0,11.0,67,0.00,,---,0.00,VWS V13.01,2013-06-06 03:07:00,
2013-06-05 23:12:00,69.7,58.3,29.92,SE,145,6.0,11.0,67,0.00,,---,0.00,VWS V13.01,2013-06-06 03:12:00,
2013-06-05 23:17:00,69.6,58.2,29.92,SSE,166,6.0,14.0,67,0.00,,---,0.00,VWS V13.01,2013-06-06 03:17:00,
2013-06-05 23:22:00,69.6,58.6,29.92,SE,141,3.0,15.0,68,0.00,,---,0.00,VWS V13.01,2013-06-06 03:22:00,
2013-06-05 23:27:00,69.5,58.5,29.92,SE,145,5.0,15.0,68,0.00,,---,0.00,VWS V13.01,2013-06-06 03:27:00,
2013-06-05 23:32:00,69.5,58.5,29.92,SE,146,6.0,9.0,68,0.00,,---,0.00,VWS V13.01,2013-06-06 03:32:00,
2013-06-05 23:37:00,69.6,58.6,29.92,SSE,152,5.0,11.0,68,0.00,,---,0.00,VWS V13.01,2013-06-06 03:37:00,
2013-06-05 23:42:00,69.6,58.6,29.92,South,177,2.0,13.0,68,0.00,,---,0.00,VWS V13.01,2013-06-06 03:42:00,
2013-06-05 23:47:00,69.6,58.6,29.92,ENE,75,3.0,13.0,68,0.00,,---,0.00,VWS V13.01,2013-06-06 03:47:00,
2013-06-05 23:52:00,69.6,58.6,29.92,SSE,148,7.0,13.0,68,0.00,,---,0.00,VWS V13.01,2013-06-06 03:52:00,
2013-06-05 23:57:00,69.7,58.7,29.92,SSE,148,0.0,13.0,68,0.00,,---,0.00,VWS V13.01,2013-06-06 03:57:00,